Theta_e
341 340 336 337 337 337 337 337 337 339 339 339 339 339 339 340 341 340 341 341 341 342 342 340 340 340 339 340 340 339 337 337 337 337 338 338 337 338 338 338 337 335 333
342 340 337 338 337 336 336 336 338 338 337 337 338 338 338 339 339 339 339 339 339 338 340 339 339 339 339 338 337 337 336 336 337 336 336 336 336 335 334 333 332 331 331
342 341 337 339 339 337 336 336 337 335 336 336 336 336 337 337 338 339 339 338 337 338 338 338 337 338 337 337 337 336 336 337 337 336 334 334 334 333 331 331 329 327 326
341 342 339 338 339 338 336 337 336 334 334 334 333 334 334 335 336 336 336 335 334 334 335 336 335 335 334 334 334 334 335 334 333 333 333 332 331 331 331 328 324 322 321
342 343 342 338 339 338 335 336 335 333 334 334 333 333 332 332 332 333 332 331 331 330 329 328 328 328 329 329 330 329 331 332 332 332 331 332 331 330 329 326 321 319 316
341 342 340 340 339 337 334 335 333 332 332 332 331 330 330 330 331 331 331 331 330 329 327 327 328 329 329 329 329 329 329 329 328 328 329 328 324 324 325 325 321 319 317
340 342 339 339 339 335 334 332 331 330 331 330 328 327 327 327 328 328 328 327 326 324 323 323 323 323 323 324 323 323 324 325 327 327 321 319 317 319 320 321 320 318 315
338 340 339 339 339 336 333 331 329 328 328 328 327 326 326 326 326 326 325 322 320 321 315 314 315 314 313 313 313 312 310 310 312 313 314 315 315 314 315 318 320 315 313
331 335 339 339 337 336 333 330 327 326 325 326 326 327 326 325 324 323 322 318 317 316 309 309 310 310 310 310 311 309 308 307 307 308 307 308 308 309 310 312 312 312 310
327 332 336 338 335 334 332 328 325 323 323 323 324 323 321 320 319 317 318 317 313 310 311 312 311 311 311 311 311 310 309 308 307 306 304 303 303 303 302 303 305 309 308
323 327 331 332 330 329 327 323 320 320 320 319 319 316 315 315 314 314 315 314 312 311 309 309 309 309 310 310 310 310 309 308 304 302 300 299 300 301 300 299 302 303 304
320 321 322 322 322 321 321 316 314 316 316 313 312 309 309 310 311 311 314 314 312 310 309 307 306 306 306 306 306 306 307 306 303 300 299 297 297 297 297 297 297 301 302
316 315 316 317 316 314 313 311 311 312 311 310 309 309 307 307 308 308 309 310 310 309 305 304 303 302 302 302 302 302 302 301 300 298 297 296 296 296 297 297 297 298 300
313 312 312 313 313 313 312 313 313 312 310 310 309 308 309 309 308 309 309 308 305 304 303 302 302 301 300 300 300 300 300 299 298 297 296 296 296 296 297 297 297 297 300
311 311 311 311 311 310 310 310 311 310 311 310 309 309 309 307 305 305 305 304 304 303 303 302 301 301 300 300 300 299 298 298 298 297 297 296 296 296 296 296 297 297 297
309 309 309 308 308 308 307 306 307 308 309 309 310 310 307 305 304 304 303 304 304 303 302 301 302 300 299 298 298 298 298 298 297 296 295 295 295 295 296 296 296 296 296
310 309 308 306 303 301 300 301 298 300 303 304 304 305 304 304 302 302 303 302 301 301 300 300 299 299 298 297 297 296 296 297 295 295 295 294 294 294 294 294 295 295 296
304 300 298 296 296 295 295 295 296 298 299 300 301 302 301 301 301 302 301 301 300 300 300 299 299 298 297 297 296 296 296 295 295 295 294 294 293 293 293 293 293 294 295
299 298 298 298 297 296 295 295 296 296 297 299 299 299 298 299 300 301 301 300 300 299 299 298 298 296 296 296 295 296 296 296 295 294 294 293 293 293 293 293 293 293 294
301 301 300 300 299 298 297 296 296 297 298 299 299 298 298 299 299 300 300 301 299 299 298 297 297 296 295 295 295 295 296 296 295 294 294 293 293 292 293 293 293 293 293
301 302 302 301 301 301 300 298 297 297 298 298 299 298 298 298 298 298 300 298 298 298 298 297 297 296 295 295 295 295 295 295 295 294 294 293 293 293 292 293 293 293 293
304 303 302 302 302 302 302 301 300 299 298 298 298 298 298 298 299 299 298 297 297 297 297 297 296 296 296 296 295 296 296 296 295 294 294 293 293 293 293 293 292 292 292
307 306 306 306 307 306 303 302 302 302 301 301 300 299 299 299 300 299 299 298 297 297 297 297 296 296 296 296 295 295 296 296 296 295 293 293 293 289 292 292 292 292 292
308 308 310 309 308 308 307 307 306 305 304 304 303 301 300 301 300 298 298 298 298 298 297 297 296 296 296 296 295 294 293 294 295 294 294 293 290 288 292 292 291 291 292
311 311 310 308 309 309 309 308 307 306 306 306 305 303 300 299 300 298 298 298 298 298 298 297 297 297 297 295 294 294 292 292 293 293 291 288 287 287 291 292 291 291 291
307 307 307 308 309 309 309 308 308 307 307 306 305 305 303 300 299 299 298 298 298 298 298 298 297 297 297 296 295 295 295 293 291 289 290 291 290 288 292 292 292 292 292
Wind_Speed
11 5 3 1 1 2 4 7 9 10 10 6 2 1 4 6 7 8 8 10 11 12 12 14 16 16 16 17 13 11 9 6 4 2 3 3 8 8 8 6 5 3 3
12 9 7 4 1 2 4 7 9 9 10 10 8 7 6 4 5 6 6 7 7 8 9 10 11 14 14 14 10 8 7 8 7 4 1 3 6 6 6 4 4 3 4
15 13 10 7 3 2 4 6 9 10 12 12 12 14 13 11 9 8 8 9 8 8 7 6 6 10 13 12 10 8 7 6 8 6 3 3 4 8 10 10 9 7 7
16 15 14 11 7 5 5 7 9 11 14 16 16 17 16 15 13 12 12 11 10 8 6 5 5 5 6 6 6 8 11 12 10 8 7 7 6 6 5 6 8 7 9
17 17 16 12 11 9 8 9 10 11 13 13 13 14 15 16 15 16 17 17 17 17 17 17 17 13 11 8 6 5 5 7 7 6 4 2 3 2 0 3 6 9 10
18 16 11 13 14 12 11 11 11 12 12 13 14 14 15 14 10 9 9 11 12 13 14 13 11 7 5 4 3 3 3 1 1 1 2 3 6 6 5 0 10 8 4
13 13 13 17 17 15 12 13 12 11 9 12 13 14 15 14 11 12 12 14 16 15 14 12 13 12 12 12 11 10 11 8 3 2 9 7 7 8 6 8 7 8 6
4 10 16 20 20 18 15 13 13 11 10 11 12 11 11 11 9 9 10 13 15 16 16 17 18 18 17 19 21 25 27 27 25 23 19 16 13 11 12 9 7 12 11
4 0 15 22 22 21 19 16 13 13 12 12 11 11 11 11 8 8 10 15 19 20 19 18 18 18 15 15 17 22 24 24 22 23 23 21 20 18 11 10 8 4 4
6 3 10 19 22 23 21 19 16 13 14 14 14 12 12 12 9 7 10 15 21 22 20 19 17 16 13 12 14 15 18 16 17 17 19 20 21 21 19 18 13 10 6
6 4 11 16 18 19 20 17 17 16 17 17 17 14 13 12 10 7 9 16 21 23 23 21 18 15 16 16 14 15 15 13 15 18 19 20 21 19 18 17 16 15 12
6 7 9 10 14 18 18 18 16 17 17 17 20 17 14 14 12 10 12 16 19 21 21 18 16 14 15 16 17 15 13 13 14 17 18 18 18 18 16 14 13 10 9
10 12 12 11 13 15 18 17 16 16 18 19 16 20 17 17 17 14 15 17 17 20 18 17 16 18 19 20 17 14 14 14 14 16 16 16 15 14 11 10 11 10 8
13 16 15 15 16 14 13 13 13 12 15 19 19 17 18 16 15 16 16 16 17 18 18 18 18 18 18 17 17 17 16 16 16 16 15 14 13 12 13 10 10 10 10
17 17 18 18 19 19 18 15 13 9 10 14 18 19 21 17 14 15 16 16 15 15 16 15 14 14 16 16 16 15 14 13 13 12 12 12 13 13 12 9 10 10 9
19 20 19 20 19 21 22 21 17 14 12 12 14 16 18 18 15 13 12 11 11 11 13 12 11 12 12 11 11 11 10 9 9 10 10 11 11 10 9 9 9 9 7
19 19 18 19 18 18 19 20 21 16 14 13 14 15 14 15 11 10 13 14 11 7 12 13 13 11 9 8 7 7 6 6 9 10 11 10 9 8 8 8 8 6 5
19 18 18 17 17 16 15 16 17 18 17 14 13 13 13 11 9 11 12 11 10 9 10 10 8 6 6 6 6 6 7 8 7 7 8 9 8 8 7 7 8 7 5
21 19 17 17 15 14 12 12 12 13 15 16 15 12 9 8 8 10 10 8 9 9 9 8 7 5 6 5 4 3 5 4 3 4 6 7 7 6 5 4 5 5 5
16 15 14 13 12 11 10 10 10 10 11 12 11 10 8 7 7 9 9 10 8 8 8 8 7 5 5 4 4 2 1 4 5 3 2 4 5 5 3 2 3 5 3
13 12 10 9 8 7 7 7 7 8 9 10 11 10 8 7 7 7 9 8 6 7 8 8 9 8 6 4 1 0 2 2 5 4 2 1 4 6 3 2 4 3 4
11 10 9 9 9 10 11 10 10 9 9 10 11 11 10 9 8 9 10 9 7 6 6 6 8 10 9 8 7 8 6 5 7 8 6 4 5 7 3 2 2 2 3
11 11 13 16 18 19 17 19 17 17 16 14 12 14 15 14 14 13 12 12 10 8 7 7 8 6 6 9 12 12 11 11 10 9 7 6 8 6 4 3 2 1 1
17 16 15 18 19 20 20 21 21 21 19 19 20 18 16 19 19 16 16 15 13 12 11 8 8 8 8 11 11 11 8 7 7 8 8 9 8 5 5 4 3 3 3
21 19 19 19 23 26 24 22 20 18 17 19 21 20 18 19 20 18 19 17 16 15 15 15 14 14 13 10 7 5 5 6 8 9 9 8 7 7 7 6 4 4 4
4 8 11 13 15 17 19 21 20 18 20 21 24 24 24 23 24 23 22 22 21 20 18 18 19 19 18 14 13 9 7 6 7 8 8 8 9 10 9 7 6 5 5
Wind_Direction
204 202 182 238 20 3 18 35 34 44 43 34 27 204 206 194 199 208 216 226 230 239 239 236 235 231 222 216 209 199 200 184 183 226 342 32 93 100 100 102 114 147 176
202 200 196 204 215 35 37 38 49 54 47 45 53 65 87 135 177 190 191 207 226 228 216 213 217 214 211 190 179 189 206 216 208 204 197 85 110 104 106 115 86 69 54
204 202 200 203 183 93 63 63 72 67 69 68 70 70 75 87 103 116 127 128 141 148 165 174 192 207 188 195 206 211 196 206 214 209 176 131 124 116 102 91 84 77 72
212 202 204 202 186 154 115 97 89 84 83 83 79 77 78 82 87 93 98 100 104 106 117 152 159 160 142 135 149 149 146 124 97 90 90 83 90 102 115 121 93 81 78
215 213 212 201 181 159 137 122 112 99 94 91 89 85 83 82 86 95 97 96 92 90 87 88 85 86 86 92 99 85 81 120 122 125 111 70 61 74 92 182 121 114 94
227 219 204 199 176 160 147 137 126 112 105 101 91 86 80 74 76 86 97 98 94 90 86 82 86 91 103 106 96 88 75 100 140 84 73 51 33 6 351 261 169 151 108
216 225 197 187 173 162 155 146 131 120 115 103 99 92 88 84 81 88 92 95 95 90 87 88 88 86 87 87 81 78 70 59 63 97 92 66 58 41 32 47 89 93 96
185 207 198 187 175 164 162 153 140 130 122 113 109 101 93 85 84 84 88 92 94 94 87 88 90 92 95 99 97 89 82 77 75 77 77 73 70 64 62 65 120 112 92
20 80 204 189 179 171 165 158 151 140 127 114 112 116 105 95 81 86 100 99 98 96 92 86 89 90 90 91 89 89 87 84 80 78 78 77 72 70 75 85 86 85 87
10 15 186 196 186 176 167 162 156 146 130 123 120 121 115 105 98 94 107 109 106 102 96 93 87 90 86 79 80 84 84 83 88 82 74 70 66 63 60 58 56 64 68
39 86 158 182 184 172 161 159 153 140 130 127 122 120 114 109 104 109 123 121 116 110 102 94 88 86 80 76 77 78 85 94 85 79 77 70 63 59 55 51 51 55 62
85 105 122 141 153 156 155 145 141 137 132 127 125 111 102 104 106 112 125 124 125 115 103 95 90 87 83 79 76 79 86 95 87 82 73 62 56 49 45 44 46 53 60
102 99 107 122 133 139 141 135 132 132 131 127 122 116 108 109 112 117 117 118 115 109 106 104 100 93 91 84 80 82 82 82 85 80 76 65 54 44 39 52 52 55 51
109 107 109 112 113 117 121 128 129 131 135 140 132 124 121 117 120 125 122 119 115 113 116 109 105 95 85 81 79 76 82 84 84 82 75 67 53 43 44 51 55 53 63
107 105 105 111 114 115 110 109 117 126 156 145 138 137 131 126 126 123 121 121 120 118 120 115 109 100 88 83 77 77 82 88 85 78 71 61 50 42 39 52 65 62 60
113 109 112 115 116 115 113 104 98 101 109 124 132 136 132 128 133 131 124 123 126 129 119 115 115 112 97 86 82 81 84 83 89 89 78 60 47 39 43 64 58 55 50
117 119 125 126 125 124 122 121 115 109 114 118 117 122 127 129 130 126 125 127 123 129 119 120 116 114 102 89 81 86 85 96 104 90 73 54 42 45 51 48 46 54 48
120 122 121 119 116 117 119 123 126 127 122 113 116 122 126 129 136 139 134 131 127 121 124 129 122 109 92 93 100 100 110 118 109 86 65 48 44 40 40 45 43 35 20
126 124 121 116 114 114 118 120 120 125 131 135 137 137 136 138 152 164 165 156 147 143 145 145 142 117 113 102 104 87 152 167 148 96 67 52 41 26 23 34 28 13 3
131 130 129 126 126 127 128 127 132 140 148 150 153 154 150 149 160 183 191 187 186 186 181 177 177 162 147 112 114 89 78 208 190 156 81 50 27 12 1 12 6 340 329
157 158 159 159 162 164 158 156 165 173 175 177 180 179 177 172 166 174 188 202 211 221 215 214 210 207 200 199 238 280 12 249 217 225 250 325 4 354 322 321 340 347 104
190 198 213 225 227 226 222 219 214 211 204 203 199 201 200 211 226 231 222 220 217 211 209 222 227 221 225 231 246 248 250 264 259 249 248 271 317 327 296 288 330 111 84
217 233 242 256 261 256 251 246 240 236 231 231 223 220 226 235 242 246 241 234 232 228 224 229 210 217 245 250 248 256 260 264 261 250 246 272 300 295 245 263 235 228 337
242 250 261 267 258 250 248 253 246 242 244 242 237 236 239 239 243 248 236 235 237 236 232 231 220 232 255 256 262 269 258 247 241 245 254 275 281 240 230 248 221 263 298
245 254 262 269 264 253 248 239 237 235 234 236 235 238 241 239 239 246 240 241 240 238 242 236 237 244 249 258 253 247 247 247 248 252 263 263 253 236 225 220 247 262 265
266 279 290 285 274 257 243 235 235 242 247 246 243 242 242 243 243 246 246 245 245 243 244 247 247 247 245 244 237 241 254 260 252 249 251 263 254 225 213 224 259 253 249